Terminal Aerodrome Forecast
Issued by NWS

Home | Current Version | Previous Version | Text Only | Print | Product List | Glossary On
Versions: 1 2 3 4 5 6 7 8 9 10 11 12 13 14 15 16 17 18 19 20 21 22 23 24 25 26 27
000
FTUS45 KGGW 221100
TAFGDV
TAF
KGDV 221133Z 2212/2312 29020G30KT 6SM -SN SCT010 OVC020
     FM221500 30020G30KT 3SM -SN OVC015
     FM230300 33016KT P6SM OVC030
      AMD LTD TO CLD VIS AND WIND=

USA.gov is the U.S. government's official web portal to all federal, state and local government web resources and services.